User: anonymous   Login
Location: Unspecified
(0.0000°N, 0.0000°E)
Time: 20:13:15
(UTC+00:00)
Language:

KAITUO 1B - Orbit

View from above orbital plane
View from above orbital plane
View from above satellite
View from above satellite

Ground track
Ground track

The orbit data is extracted from the following two-line orbital elements,

1 40912U 15049P   20273.28165135  .00001890  00000-0  89353-4 0  9990
2 40912  97.4506 279.8249 0014265 343.2713 140.3880 15.20550739278492
Epoch (UTC): 29 September 2020 06:45:34
Eccentricity: 0.0014265
inclination: 97.4506°
perigee height: 494 km
apogee height: 514 km
right ascension of ascending node: 279.8249°
argument of perigee: 343.2713°
revolutions per day: 15.20550739
mean anomaly at epoch: 140.3880°
orbit number at epoch: 27849

The dashed part of the orbit path shows where the satellite is in the earth's shadow,  

DLR